timestamp,surface_pressure_avg,surface_temp_avg,battery_voltage,lat,long
2023-12-09 00:09:00+00:00,263.8914,6.16,11.77,47.84626,-54.09684
2023-12-09 00:19:00+00:00,263.0231,6.18,11.77,47.84626,-54.09684
2023-12-09 00:29:00+00:00,260.8514,6.19,11.77,47.84626,-54.09684
2023-12-09 00:39:00+00:00,254.9114,6.14,11.77,47.84626,-54.09684
2023-12-09 00:49:00+00:00,252.8031,6.14,11.77,47.84626,-54.09684
2023-12-09 00:59:00+00:00,253.3698,6.16,11.77,47.84626,-54.09684
2023-12-09 01:09:00+00:00,250.5064,6.18,11.77,47.84626,-54.09684
2023-12-09 01:19:00+00:00,244.2581,6.18,11.77,47.84626,-54.09684
2023-12-09 01:29:00+00:00,240.1597,6.14,11.77,47.84626,-54.09684
2023-12-09 01:39:00+00:00,240.0297,6.15,11.77,47.84626,-54.09684
2023-12-09 01:49:00+00:00,238.3931,6.15,11.77,47.84626,-54.09684
2023-12-09 01:59:00+00:00,234.0764,6.16,11.77,47.84626,-54.09684
2023-12-09 02:09:00+00:00,230.0131,6.18,11.77,47.84626,-54.09684
2023-12-09 02:19:00+00:00,229.2465,6.18,11.77,47.84626,-54.09684
2023-12-09 02:29:00+00:00,230.4015,6.17,11.77,47.84626,-54.09684
2023-12-09 02:39:00+00:00,232.1198,6.17,11.77,47.84626,-54.09684
2023-12-09 02:49:00+00:00,233.1981,6.17,11.77,47.84626,-54.09684
2023-12-09 02:59:00+00:00,236.1248,6.15,11.77,47.84626,-54.09684
2023-12-09 03:09:00+00:00,237.0264,6.13,11.77,47.84626,-54.09684
2023-12-09 03:19:00+00:00,235.8264,6.1,11.77,47.84626,-54.09684
2023-12-09 03:29:00+00:00,236.8881,6.1,11.77,47.84626,-54.09684
2023-12-09 03:39:00+00:00,242.4615,6.1,11.77,47.84626,-54.09684
2023-12-09 03:49:00+00:00,247.1664,6.1,11.77,47.84626,-54.09684
2023-12-09 03:59:00+00:00,252.0747,6.1,11.77,47.84626,-54.09684
2023-12-09 04:09:00+00:00,254.5847,6.09,11.77,47.84626,-54.09684
2023-12-09 04:19:00+00:00,257.3464,6.08,11.7,47.84626,-54.09684
2023-12-09 04:29:00+00:00,261.0664,6.06,11.7,47.84626,-54.09684
2023-12-09 04:39:00+00:00,267.9364,6.07,11.7,47.84626,-54.09684
2023-12-09 04:49:00+00:00,273.723,6.0,11.7,47.84626,-54.09684
2023-12-09 04:59:00+00:00,276.8881,6.0,11.7,47.84626,-54.09684
2023-12-09 05:09:00+00:00,281.1531,6.16,11.7,47.84626,-54.09684
2023-12-09 05:19:00+00:00,287.438,6.1,11.7,47.84626,-54.09684
2023-12-09 05:29:00+00:00,293.6296,6.1,11.7,47.84626,-54.09684
2023-12-09 05:39:00+00:00,295.728,6.0,11.7,47.84626,-54.09684
2023-12-09 05:49:00+00:00,301.5229,6.0,11.7,47.84626,-54.09684
2023-12-09 05:59:00+00:00,308.1964,6.0,11.7,47.84626,-54.09684
2023-12-09 06:09:00+00:00,312.188,6.0,11.7,47.84626,-54.09684
2023-12-09 06:19:00+00:00,312.4797,6.0,11.7,47.84626,-54.09684
2023-12-09 06:29:00+00:00,318.103,6.02,11.7,47.84626,-54.09684
2023-12-09 06:39:00+00:00,326.473,6.07,11.7,47.84626,-54.09684
2023-12-09 06:49:00+00:00,327.7046,6.07,11.7,47.84626,-54.09684
2023-12-09 06:59:00+00:00,330.3363,6.08,11.7,47.84626,-54.09684
2023-12-09 07:09:00+00:00,337.92800000000005,6.07,11.7,47.84626,-54.09684
2023-12-09 07:19:00+00:00,341.6897,6.05,11.7,47.84626,-54.09684
2023-12-09 07:29:00+00:00,340.0746,6.07,11.7,47.84626,-54.09684
2023-12-09 07:39:00+00:00,343.228,6.06,11.7,47.84626,-54.09684
2023-12-09 07:49:00+00:00,350.0146,6.07,11.7,47.84626,-54.09684
2023-12-09 07:59:00+00:00,350.0363,6.08,11.7,47.84626,-54.09684
2023-12-09 08:09:00+00:00,350.6963,6.08,11.7,47.84626,-54.09684
2023-12-09 08:19:00+00:00,355.8446,6.1,11.7,47.84626,-54.09684
2023-12-09 08:29:00+00:00,355.5746,6.1,11.7,47.84626,-54.09684
2023-12-09 08:39:00+00:00,351.8013,6.1,11.7,47.84626,-54.09684
2023-12-09 08:49:00+00:00,359.4596,6.1,11.7,47.84626,-54.09684
2023-12-09 08:59:00+00:00,361.5762,6.1,11.7,47.84626,-54.09684
2023-12-09 09:09:00+00:00,352.8596,6.09,11.7,47.84626,-54.09684
2023-12-09 09:19:00+00:00,354.7213,6.1,11.7,47.84626,-54.09684
2023-12-09 09:29:00+00:00,360.3129,6.1,11.7,47.84626,-54.09684
2023-12-09 09:39:00+00:00,355.9929,6.1,11.7,47.84626,-54.09684
2023-12-09 09:49:00+00:00,350.5996,6.09,11.7,47.84626,-54.09684
2023-12-09 09:59:00+00:00,352.408,6.09,11.7,47.84626,-54.09684
2023-12-09 10:09:00+00:00,348.7163,6.06,11.7,47.84626,-54.09684
2023-12-09 10:19:00+00:00,339.6829,6.0,11.7,47.84626,-54.09684
2023-12-09 10:29:00+00:00,338.288,6.0,11.7,47.84626,-54.09684
2023-12-09 10:39:00+00:00,336.673,6.0,11.7,47.84626,-54.09684
2023-12-09 10:49:00+00:00,326.3729,5.99,11.7,47.84626,-54.09684
2023-12-09 10:59:00+00:00,324.223,6.0,11.7,47.84626,-54.09684
2023-12-09 11:09:00+00:00,326.0446,6.0,11.7,47.84626,-54.09684
2023-12-09 11:19:00+00:00,321.9846,5.95,11.7,47.84626,-54.09684
2023-12-09 11:29:00+00:00,310.9897,5.99,11.7,47.84626,-54.09684
2023-12-09 11:39:00+00:00,310.323,5.99,11.7,47.84626,-54.09684
2023-12-09 11:49:00+00:00,308.0297,5.98,11.7,47.84626,-54.09684
2023-12-09 11:59:00+00:00,297.548,5.91,11.7,47.84626,-54.09684
2023-12-09 12:09:00+00:00,291.7847,5.9,11.7,47.84626,-54.09684
2023-12-09 12:19:00+00:00,290.9864,5.91,11.7,47.84626,-54.09684
2023-12-09 12:29:00+00:00,286.4347,5.9,11.7,47.84626,-54.09684
2023-12-09 12:39:00+00:00,275.0997,5.9,11.7,47.84626,-54.09684
2023-12-09 12:49:00+00:00,272.9564,5.9,11.7,47.84626,-54.09684
2023-12-09 12:59:00+00:00,272.7164,5.89,11.7,47.84626,-54.09684
2023-12-09 13:09:00+00:00,265.3431,5.9,11.7,47.84626,-54.09684
2023-12-09 13:19:00+00:00,258.1081,5.9,11.77,47.84626,-54.09684
2023-12-09 13:29:00+00:00,258.5998,5.9,11.77,47.84626,-54.09684
2023-12-09 13:39:00+00:00,256.6298,5.88,11.77,47.84626,-54.09684
2023-12-09 13:49:00+00:00,250.6781,5.88,11.77,47.84626,-54.09684
2023-12-09 13:59:00+00:00,250.5914,5.87,11.77,47.84626,-54.09684
2023-12-09 14:09:00+00:00,251.1014,5.85,11.77,47.84626,-54.09684
2023-12-09 14:19:00+00:00,248.7181,5.81,11.77,47.84626,-54.09684
2023-12-09 14:29:00+00:00,247.2264,5.85,11.77,47.84626,-54.09684
2023-12-09 14:39:00+00:00,248.3864,5.88,11.77,47.84626,-54.09684
2023-12-09 14:49:00+00:00,248.8614,5.88,11.77,47.84626,-54.09684
2023-12-09 14:59:00+00:00,246.2131,5.84,11.77,47.84626,-54.09684
2023-12-09 15:09:00+00:00,245.0214,5.83,11.77,47.84626,-54.09684
2023-12-09 15:19:00+00:00,247.1614,5.86,11.77,47.84626,-54.09684
2023-12-09 15:29:00+00:00,245.4948,5.89,11.77,47.84626,-54.09684
2023-12-09 15:39:00+00:00,244.9714,5.89,11.77,47.84626,-54.09684
2023-12-09 15:49:00+00:00,247.3948,5.9,11.77,47.84626,-54.09684
2023-12-09 15:59:00+00:00,253.2981,5.89,11.77,47.84626,-54.09684
2023-12-09 16:09:00+00:00,254.9182,5.9,11.77,47.84626,-54.09684
2023-12-09 16:19:00+00:00,254.4414,5.9,11.77,47.84626,-54.09684
2023-12-09 16:29:00+00:00,253.4181,5.9,11.77,47.84626,-54.09684
2023-12-09 16:39:00+00:00,256.95799999999997,5.9,11.77,47.84626,-54.09684
2023-12-09 16:49:00+00:00,259.6547,5.89,11.77,47.84626,-54.09684
2023-12-09 16:59:00+00:00,263.1048,5.85,11.77,47.84626,-54.09684
2023-12-09 17:09:00+00:00,264.188,5.8,11.77,47.84626,-54.09684
2023-12-09 17:19:00+00:00,269.5431,5.8,11.93,47.84626,-54.09684
2023-12-09 17:29:00+00:00,272.6064,5.8,11.93,47.84626,-54.09684
2023-12-09 17:39:00+00:00,273.7381,5.8,11.93,47.84626,-54.09684
2023-12-09 17:49:00+00:00,277.6348,5.8,11.93,47.84626,-54.09684
2023-12-09 17:59:00+00:00,287.2797,5.8,11.93,47.84626,-54.09684
2023-12-09 18:09:00+00:00,289.6063,5.8,11.93,47.84626,-54.09684
2023-12-09 18:19:00+00:00,288.3614,5.8,11.93,47.84626,-54.09684
2023-12-09 18:29:00+00:00,293.173,5.8,11.93,47.84626,-54.09684
2023-12-09 18:39:00+00:00,300.7714,5.79,11.93,47.84626,-54.09684
2023-12-09 18:49:00+00:00,302.9314,5.74,11.93,47.84626,-54.09684
2023-12-09 18:59:00+00:00,307.7964,5.72,11.93,47.84626,-54.09684
2023-12-09 19:09:00+00:00,314.293,5.7,11.93,47.84626,-54.09684
2023-12-09 19:19:00+00:00,317.458,5.7,11.86,47.84626,-54.09684
2023-12-09 19:29:00+00:00,319.9664,5.7,11.86,47.84626,-54.09684
2023-12-09 19:39:00+00:00,326.7613,5.7,11.86,47.84626,-54.09684
2023-12-09 19:49:00+00:00,335.278,5.7,11.86,47.84626,-54.09684
2023-12-09 19:59:00+00:00,338.913,5.68,11.86,47.84626,-54.09684
2023-12-09 20:09:00+00:00,342.0446,5.65,11.86,47.84626,-54.09684
2023-12-09 20:19:00+00:00,346.6146,5.67,11.77,47.84626,-54.09684
2023-12-09 20:29:00+00:00,350.0862,5.67,11.77,47.84626,-54.09684
2023-12-09 20:39:00+00:00,352.0812,5.65,11.77,47.84626,-54.09684
2023-12-09 20:49:00+00:00,358.3896,5.6,11.77,47.84626,-54.09684
2023-12-09 20:59:00+00:00,366.1046,5.6,11.77,47.84626,-54.09684
2023-12-09 21:09:00+00:00,365.2463,5.6,11.77,47.84626,-54.09684
2023-12-09 21:19:00+00:00,365.9296,5.6,11.77,47.84626,-54.09684
2023-12-09 21:29:00+00:00,373.7697,5.6,11.77,47.84626,-54.09684
2023-12-09 21:39:00+00:00,374.3962,5.6,11.77,47.84626,-54.09684
2023-12-09 21:49:00+00:00,369.288,5.59,11.77,47.84626,-54.09684
2023-12-09 21:59:00+00:00,370.763,5.57,11.77,47.84626,-54.09684
2023-12-09 22:09:00+00:00,372.1479,5.52,11.77,47.84626,-54.09684
2023-12-09 22:19:00+00:00,366.7079,5.5,11.77,47.84626,-54.09684
2023-12-09 22:29:00+00:00,362.8812,5.5,11.77,47.84626,-54.09684
2023-12-09 22:39:00+00:00,363.8663,5.5,11.77,47.84626,-54.09684
2023-12-09 22:49:00+00:00,358.1579,5.5,11.77,47.84626,-54.09684
2023-12-09 22:59:00+00:00,349.3729,5.48,11.77,47.84626,-54.09684
2023-12-09 23:09:00+00:00,346.7547,5.47,11.77,47.84626,-54.09684
2023-12-09 23:19:00+00:00,343.3880000000001,5.48,11.7,47.84626,-54.09684
2023-12-09 23:29:00+00:00,332.5863,5.49,11.7,47.84626,-54.09684
2023-12-09 23:39:00+00:00,326.0197,5.49,11.7,47.84626,-54.09684
2023-12-09 23:49:00+00:00,324.798,5.5,11.7,47.84626,-54.09684
2023-12-09 23:59:00+00:00,320.643,5.49,11.7,47.84626,-54.09684
